Aeroporto :
LOGIN :

Iscrizione | Disclaimer

   EN    FR    IT 

 










Sommario :    VFR   VFR Marginale   IFR   IFR Intensivo   IFR Molto Intensivo
Visibilità : 
Base nubi : 
>= 8 km
>= 3000ft
5 / 8 km
1000 / 3000 ft
1500m / 5 km
500 / 1000 ft
800 / 1500m
200 / 500 ft
< 800m
< 200 ft
Simboli :   Temporali  Nebbia  Neve Forte  Precipitazioni Forti  Vento > 20 kt
SIGMETs :   Varie  Temporali  Ghiacco  Turbolenza  Onda orograficha  Ceneri Vulcaniche






- Altitudine del aeroporto : 49 ft
- Codice IATA : GLZ


EHGR - Gilze-Rijen Airbase

ULTIMO METAR :
  • 152025Z AUTO VRB02KT 9999 OVC046 01/M01 Q1030 BLU

METARs OBSOLETI :
  • 151955Z AUTO 19002KT 9999 OVC046 01/M01 Q1030 BLU
  • 151925Z AUTO VRB02KT 9999 OVC046 00/M01 Q1030 BLU
  • 151855Z AUTO VRB02KT 9999 OVC045 00/M02 Q1030 BLU
  • 151825Z AUTO VRB01KT 9999 OVC046 00/M01 Q1030 BLU
  • 151755Z AUTO VRB01KT 9999 OVC046 00/M02 Q1030 BLU

TAF TAF EHGR
Valido dal 15 a 10 ore il 15 a 22 ore UTC


150923Z 1510/1522 01007KT 9999 OVC035
BECMG 1516/1519 VRB02KT



MetMap, La meteo Aeronautica in un colpo d'occhio ! - Copyright ORBIFLY Dicembre 2007 - Disclaimer

ORBIFLY MET'MAP TEAM :

Programmazione e sviluppo : Alexandra Zaïnal
Concezione : Baudouin d'Aumeries
Aiuto per la programmazione : Marc-Olivier Méhu
Supporto tecnico e logistico : Manuel Goepfert
Aiuto per la traduzione : Arnaldo La Scala

Contatto : metmap@orbifly.com




FONTI E CREDITI :

   NOAA